Probability
0 0 0 0 0 0 0 0 0 0 0 0 0 0 0 0 0 0 0 0 0 0 0 0 0 0 0 0 0 1 2 2 1 0 0 2 4 5 3 2 3 4 5 5 3 1 0 0 0
0 0 0 0 0 0 0 0 0 0 0 0 0 0 0 0 0 0 0 0 0 0 0 0 0 0 0 0 0 0 1 1 0 0 1 2 4 5 5 6 6 5 5 5 4 2 1 0 0
0 0 0 0 0 0 0 0 0 0 0 0 0 0 0 0 0 0 0 0 0 0 0 0 0 0 0 0 0 0 0 0 0 0 1 2 4 5 7 9 9 6 4 5 4 3 2 0 0
0 0 0 0 0 0 0 0 0 0 0 0 0 0 0 0 0 0 1 1 1 0 0 0 1 1 0 0 0 0 0 0 0 0 1 1 2 3 5 8 8 5 3 3 3 4 3 1 1
0 0 0 0 0 0 0 0 0 0 0 0 0 0 0 0 0 1 2 2 1 0 0 0 1 1 0 0 0 0 0 0 0 0 1 1 1 1 2 3 5 5 3 2 3 4 5 3 2
0 0 0 0 0 0 0 0 0 0 0 0 0 0 0 0 0 1 2 1 1 0 0 0 1 1 0 0 0 0 0 0 0 0 1 1 0 0 0 1 2 3 3 2 3 5 5 4 2
0 0 0 0 0 0 0 0 0 0 0 0 0 0 0 0 0 1 1 0 0 0 0 0 0 0 0 0 0 0 0 0 0 0 0 0 0 0 0 0 1 1 1 2 3 5 5 3 1
0 0 0 0 0 0 0 0 0 0 0 0 0 0 0 0 0 0 0 0 0 0 0 0 0 0 0 0 0 0 0 0 0 0 0 0 0 0 0 0 1 0 0 1 3 4 5 4 3
0 0 0 0 0 0 0 0 0 0 0 0 0 0 0 1 1 1 0 0 0 0 0 0 0 0 0 0 0 0 0 0 0 0 0 0 0 0 0 0 0 0 0 0 1 3 4 4 4
0 0 0 0 0 0 0 0 0 0 0 0 0 0 1 1 1 1 0 0 0 0 0 0 0 0 0 0 0 0 0 0 0 0 0 0 0 0 0 0 0 0 0 0 0 1 1 2 2
0 0 0 0 0 0 0 0 0 0 0 0 0 1 2 2 1 0 0 0 0 0 0 0 0 0 0 0 0 0 0 0 0 0 0 0 0 0 0 0 0 0 1 0 0 0 0 1 1
0 0 0 0 0 0 0 0 0 0 0 0 1 3 4 2 1 0 0 0 0 0 0 0 0 0 0 0 0 0 0 0 0 0 0 0 0 0 0 0 0 0 0 0 0 0 0 0 0
0 0 0 0 1 0 0 0 0 0 0 0 1 3 3 1 0 0 0 0 0 0 0 0 0 0 0 0 0 0 0 0 0 0 0 0 0 0 0 0 0 0 0 0 0 0 0 0 0
0 0 0 0 0 0 0 0 0 0 0 1 2 2 2 1 0 0 0 0 0 0 0 0 0 0 0 0 0 0 0 0 0 0 0 0 0 0 0 0 0 0 0 0 0 0 0 0 0
0 0 0 0 0 0 0 0 0 0 1 2 3 1 0 0 0 0 0 0 0 0 0 0 0 0 0 0 0 0 0 0 0 0 0 0 0 0 0 0 0 0 0 0 0 0 0 0 0
0 0 0 0 0 0 0 0 0 1 2 2 1 0 0 0 0 0 0 0 0 0 0 0 0 0 0 0 0 0 0 0 0 0 0 0 0 0 0 0 0 0 0 0 0 0 0 0 0
0 0 0 0 0 0 0 0 0 1 1 1 0 0 0 0 0 0 0 0 0 0 0 0 0 0 0 0 0 0 0 0 0 0 0 0 0 0 0 0 0 0 0 0 0 0 0 0 0
0 0 0 0 0 0 0 0 0 0 0 0 0 0 0 0 0 0 0 0 0 0 0 0 0 0 0 0 0 0 0 0 0 0 0 0 0 0 0 0 0 0 0 0 0 0 0 0 0
0 0 0 0 0 0 0 0 0 0 0 0 1 1 1 1 0 0 0 0 0 0 0 0 0 0 0 0 0 0 0 0 0 0 0 0 0 0 0 0 0 0 0 0 0 0 0 0 0
0 0 0 0 0 0 0 0 0 0 0 0 1 2 2 2 1 0 0 0 0 0 0 0 0 0 0 0 0 0 0 0 0 0 0 0 0 0 0 0 0 0 0 0 0 0 0 0 0
0 0 0 0 0 0 0 0 0 0 0 0 1 1 3 3 2 0 0 0 0 0 0 0 0 0 0 0 0 0 0 0 0 0 0 0 0 0 0 0 0 0 0 0 0 0 0 0 0
0 0 0 0 0 0 0 0 0 0 0 0 0 1 2 2 1 0 0 0 0 0 0 0 0 0 0 0 0 0 0 0 0 0 0 0 0 0 0 0 0 0 0 0 0 0 0 0 0
0 0 0 0 0 0 0 0 0 0 0 0 0 0 1 1 0 0 0 0 0 0 0 0 0 0 0 0 0 0 0 0 0 0 0 0 0 0 0 0 0 0 0 0 0 0 0 0 0
0 0 0 0 0 0 0 0 0 0 0 0 0 0 0 0 0 0 0 0 0 0 0 0 0 0 0 0 0 0 0 0 0 0 0 0 0 0 0 0 0 0 0 0 0 0 0 0 0
0 0 0 0 0 0 0 0 0 0 0 0 0 0 0 0 0 0 0 0 0 0 0 0 0 0 0 0 0 0 0 0 0 0 0 0 0 0 0 0 0 0 0 0 0 0 0 0 0
0 0 0 0 0 0 0 0 0 0 0 0 0 0 0 0 0 0 0 0 0 0 0 0 0 0 0 0 0 0 0 0 0 0 0 0 0 0 0 0 0 0 0 0 0 0 0 0 0
0 0 0 0 0 0 0 0 0 0 0 0 0 0 0 0 0 0 0 0 0 0 0 0 0 0 0 0 0 0 0 0 0 0 0 0 0 0 0 0 0 0 0 0 0 0 0 0 0
0 0 0 0 0 0 0 0 0 0 0 0 0 0 0 0 0 0 0 0 0 0 0 0 0 0 0 0 0 0 0 0 0 0 0 0 0 0 0 0 0 0 0 0 0 0 0 0 0
0 0 0 0 0 0 0 0 0 0 0 0 0 0 0 0 0 0 0 0 0 0 0 0 0 0 0 0 0 0 0 0 0 0 0 0 0 0 0 0 0 0 0 0 0 0 0 0 0
0 0 0 0 0 0 0 0 0 0 0 0 0 0 0 0 0 0 0 0 0 0 0 0 0 0 0 0 0 0 0 0 0 0 0 0 0 0 0 0 0 0 0 0 0 0 0 0 0
Wind_Speed
6 3 2 2 2 1 2 3 3 2 1 1 5 8 8 5 3 4 2 9 11 9 7 8 10 9 8 7 6 6 5 5 4 3 3 3 3 3 2 2 2 2 2 2 2 3 2 2 2
3 2 2 2 2 0 2 3 3 4 4 5 5 6 7 5 5 6 5 10 11 10 7 7 10 9 8 7 6 5 4 4 3 3 2 2 1 1 1 1 1 0 1 1 2 2 2 2 2
3 2 2 2 1 2 3 3 4 3 3 3 4 4 5 5 5 5 8 12 11 9 7 8 11 9 8 7 6 5 4 3 2 2 1 1 0 0 1 1 1 2 2 2 2 3 3 3 3
2 2 2 2 3 3 3 4 3 2 1 3 5 5 3 3 5 7 13 13 11 8 6 8 11 10 8 7 6 4 3 2 1 0 1 1 1 2 2 3 3 3 3 4 4 3 4 4 4
3 2 1 1 3 2 3 4 3 2 1 3 6 6 3 2 8 13 13 12 11 8 6 7 11 10 9 7 6 4 2 1 0 1 1 2 3 4 4 4 5 5 5 5 5 5 5 6 6
2 2 2 1 2 2 2 3 1 1 4 5 7 6 3 3 8 10 12 10 10 10 7 7 11 11 10 8 6 4 3 1 1 1 2 3 4 5 5 6 6 6 6 6 6 6 6 7 7
3 2 2 2 2 1 2 2 1 1 2 4 7 6 4 4 7 10 11 10 9 9 7 5 5 7 9 8 6 5 4 3 3 3 4 4 5 6 7 7 7 7 7 7 7 7 7 7 7
3 3 1 1 1 2 3 2 2 1 1 4 6 8 7 8 8 9 9 8 7 7 6 6 5 4 4 4 6 6 4 4 4 4 5 6 7 7 8 8 8 8 8 8 8 8 8 8 8
3 2 2 3 2 2 2 2 2 1 1 1 3 6 9 12 10 8 6 4 4 5 5 5 5 4 4 3 5 4 3 3 3 4 6 5 3 4 5 6 7 8 8 8 8 9 8 8 7
3 3 3 2 3 3 3 3 3 0 2 2 4 5 11 11 10 9 7 6 6 5 5 5 5 5 4 4 2 1 1 1 2 2 3 2 2 3 3 5 6 6 7 7 8 8 7 5 1
4 4 2 2 4 4 3 4 3 4 3 6 10 11 12 10 9 9 8 7 6 6 5 5 5 5 4 2 1 1 0 0 1 1 1 1 1 2 2 2 3 3 4 3 4 4 2 1 1
2 3 3 4 4 3 4 3 2 5 7 8 13 14 13 11 11 10 10 8 6 6 6 5 6 5 4 2 1 1 1 0 0 1 2 1 1 2 2 2 2 2 1 2 2 1 2 2 2
2 2 2 4 5 5 4 4 4 5 5 7 10 11 12 11 10 9 9 9 8 7 6 6 6 5 4 3 1 2 1 1 1 1 2 2 1 2 2 2 2 2 1 1 1 2 2 2 2
2 2 2 4 6 4 3 4 3 5 5 9 12 11 11 11 11 8 8 8 8 8 7 5 6 5 5 3 2 2 1 1 1 2 3 3 2 2 2 2 2 2 2 1 1 2 1 1 2
0 1 2 3 4 3 1 4 6 6 7 10 11 10 10 10 10 11 11 11 10 9 7 6 6 6 6 4 3 2 1 2 2 2 3 3 3 2 2 2 2 2 2 2 1 1 0 1 1
2 2 2 4 1 2 2 6 8 5 9 10 10 9 9 9 10 10 11 10 10 9 8 7 7 6 5 4 3 2 2 2 2 1 2 3 3 3 2 2 2 3 2 2 1 1 1 1 0
2 0 2 5 3 3 3 7 7 5 8 10 10 9 9 8 7 8 9 11 11 10 8 7 7 6 5 4 3 2 2 2 1 1 2 3 4 3 2 2 2 3 2 2 2 1 0 0 1
2 1 2 5 4 4 5 8 8 6 8 10 9 9 9 9 9 9 9 10 10 9 8 8 7 6 5 4 4 2 3 1 1 1 1 2 2 3 3 2 3 3 2 2 2 1 1 0 1
3 3 4 6 4 3 7 10 10 7 7 8 8 9 9 10 7 8 9 10 9 8 8 7 7 5 4 3 3 2 1 0 0 0 1 1 2 3 3 3 3 3 2 2 2 1 1 1 1
2 0 3 4 5 4 5 10 10 7 10 10 11 10 10 8 7 8 8 9 9 9 8 7 7 6 5 3 3 2 2 1 1 1 1 1 1 2 2 3 2 3 2 3 3 2 1 1 1
3 4 5 4 2 2 2 8 6 4 5 6 7 8 9 13 13 12 10 8 9 9 9 9 8 7 6 5 3 3 3 2 1 1 1 2 1 1 2 2 2 2 2 2 2 2 2 1 1
4 7 5 3 1 3 1 3 8 4 2 5 6 6 8 10 10 11 11 10 10 9 8 8 8 7 6 6 5 4 3 2 2 2 2 2 1 1 1 2 2 2 2 2 2 2 1 2 1
6 4 3 2 1 2 2 1 8 3 1 5 6 7 8 10 12 13 12 12 9 8 8 8 8 7 6 6 6 5 3 2 1 1 1 1 1 2 1 1 2 2 2 2 3 2 2 2 1
2 4 4 4 4 2 2 1 5 4 4 4 4 5 7 9 10 10 9 8 7 7 8 8 8 7 6 6 6 6 5 3 2 1 1 1 1 2 2 0 1 1 1 1 2 2 3 2 2
4 5 5 7 5 4 3 1 6 6 5 4 5 6 7 8 9 9 9 9 9 9 9 8 9 7 6 6 5 6 5 4 4 3 3 2 1 2 2 1 0 0 0 1 2 2 2 2 2
2 7 6 3 3 5 4 1 6 5 3 1 2 4 6 8 9 10 11 11 10 10 10 9 9 8 7 6 6 5 5 4 3 4 3 3 3 3 3 2 1 1 0 1 2 2 2 2 2
3 2 5 6 1 2 4 4 6 3 2 1 2 3 6 7 9 10 10 10 10 11 11 11 10 8 7 7 6 5 5 5 4 4 3 3 3 3 3 2 1 1 1 1 2 2 2 2 2
4 5 5 4 3 2 5 3 4 4 3 2 2 4 6 6 7 8 8 9 9 10 9 9 9 9 8 7 6 5 5 5 5 4 4 3 3 2 2 2 2 1 1 1 2 1 1 2 2
1 2 5 4 5 4 1 6 6 5 5 4 5 5 5 6 7 8 8 8 8 7 8 8 8 7 7 7 6 5 5 5 5 4 4 4 3 3 3 3 3 2 2 1 1 1 1 2 2
3 3 5 4 1 4 3 8 6 4 4 3 3 3 3 4 5 6 6 6 7 8 8 8 8 8 8 7 7 6 5 5 5 5 5 4 4 4 4 3 3 3 3 2 2 2 1 1 1
Wind_Direction
198 173 112 71 62 55 248 242 228 237 257 82 84 89 89 73 92 137 165 139 134 136 137 136 134 130 128 124 120 116 111 108 105 106 111 111 111 112 112 115 115 116 124 129 134 127 122 120 109
155 157 97 70 92 232 259 241 224 214 181 132 93 87 87 86 97 113 120 138 137 138 137 136 135 131 127 121 116 110 103 98 95 92 96 101 102 100 99 135 132 174 204 203 195 183 173 170 166
167 153 122 98 158 207 244 242 229 250 206 146 89 58 83 119 122 130 144 143 138 136 137 142 138 133 128 125 121 114 105 95 88 82 74 55 31 321 289 286 273 267 260 248 231 227 221 214 213
124 72 66 91 235 237 227 254 247 256 80 83 109 78 60 111 136 137 141 141 137 139 143 147 142 140 139 137 132 128 122 109 93 27 326 318 309 293 288 283 278 267 259 255 244 237 237 238 233
77 98 79 264 249 253 258 267 279 252 125 97 101 91 59 56 120 133 140 141 141 146 152 156 152 151 148 147 146 146 135 116 28 299 294 300 300 297 293 285 277 272 265 257 250 244 242 242 239
73 88 118 242 258 254 269 271 289 304 115 113 107 109 127 139 130 139 143 147 150 155 163 166 165 161 159 158 160 162 163 184 252 287 290 286 286 288 286 283 276 271 267 264 256 249 247 245 241
138 131 191 224 263 272 270 303 283 139 132 143 131 113 141 170 154 143 147 152 157 160 163 172 175 170 170 170 175 183 193 215 244 270 286 286 287 288 284 278 272 268 265 259 256 252 250 245 242
152 124 202 217 226 257 298 311 290 202 169 139 128 139 167 187 161 143 144 150 157 163 168 176 183 178 181 187 190 195 208 230 250 267 277 283 292 296 291 282 271 264 264 263 259 253 251 248 242
122 99 213 218 199 224 256 285 293 307 95 86 130 160 165 160 150 137 133 138 154 164 173 178 181 181 188 204 214 210 227 252 273 288 291 299 304 298 292 284 269 261 264 267 263 258 254 250 248
130 167 221 210 191 200 219 222 223 142 78 78 82 110 139 153 154 154 158 164 162 162 172 170 166 173 185 209 205 232 260 276 283 287 299 303 293 290 294 291 284 272 273 273 271 268 265 253 248
163 189 205 224 221 212 219 231 212 151 185 180 160 157 157 162 164 167 172 172 170 162 155 153 153 161 164 173 159 190 231 259 295 299 303 320 332 317 326 320 314 304 294 292 293 293 281 224 204
159 223 202 224 227 227 225 224 220 201 209 187 167 164 166 169 175 178 176 174 164 149 150 146 145 143 145 134 135 148 125 109 25 355 11 21 360 347 343 333 308 299 293 280 280 274 257 230 216
203 253 247 256 260 250 251 241 227 229 216 170 165 166 174 177 181 184 175 168 160 152 150 144 141 135 128 118 109 102 109 132 101 29 7 19 11 351 347 331 326 311 298 272 274 272 256 240 222
226 250 271 264 262 256 248 264 215 230 188 165 170 180 184 183 183 175 167 164 163 156 151 143 133 132 123 110 101 106 120 118 76 38 12 27 26 9 7 357 346 337 316 292 263 261 256 248 226
233 21 328 279 276 277 265 277 234 214 176 180 183 188 189 192 183 177 175 170 165 159 153 144 135 128 121 117 114 116 121 108 80 50 31 34 34 29 22 7 351 334 326 330 335 318 323 297 251
44 38 319 290 274 267 164 260 259 205 178 189 195 197 195 198 192 182 171 164 159 155 155 152 135 131 128 125 118 115 107 97 89 76 38 29 28 31 24 7 343 336 350 355 345 340 358 328 291
38 50 269 293 241 223 199 251 270 209 185 196 200 200 200 199 194 179 166 162 160 157 150 140 137 140 135 120 108 98 91 94 105 84 46 25 21 23 26 6 341 350 6 357 334 15 30 330 316
174 169 251 259 264 213 229 255 271 234 202 204 204 201 199 196 194 175 163 157 155 154 148 142 140 140 126 103 90 73 66 67 76 71 49 41 27 23 25 10 356 1 14 1 355 355 16 354 291
147 175 229 249 261 240 246 262 266 238 219 215 210 208 201 202 188 163 155 151 147 150 149 146 144 148 131 112 116 117 123 155 24 298 69 57 40 28 33 16 5 10 18 1 357 16 32 12 24
125 137 269 273 253 229 262 271 270 234 213 210 204 203 199 188 165 165 159 157 156 159 159 152 151 152 145 141 150 157 158 182 194 272 349 3 38 19 39 35 18 11 19 17 18 36 50 13 35
213 209 230 244 311 275 313 314 301 275 219 212 205 198 189 182 175 172 167 166 161 163 164 162 160 155 152 141 118 88 64 40 24 344 302 293 298 13 32 39 38 21 33 16 7 34 71 46 4
231 226 226 238 48 310 76 300 304 302 243 210 204 189 187 182 173 171 170 172 175 173 163 156 156 154 153 142 131 135 143 174 222 226 245 274 284 311 8 40 44 29 26 15 360 41 62 85 42
215 227 224 255 142 345 355 136 294 325 244 236 216 195 186 178 174 177 179 179 176 165 157 155 151 153 156 148 143 141 154 192 222 231 248 271 295 291 306 28 41 31 22 21 21 26 47 72 84
172 46 31 39 64 9 286 134 286 279 241 236 223 200 189 180 179 179 176 165 164 156 151 151 151 158 163 155 154 157 167 180 179 199 217 245 274 288 293 344 52 34 27 24 22 31 47 54 71
77 73 31 15 15 278 288 118 260 269 263 212 196 195 188 179 174 171 170 171 170 164 162 159 158 164 171 165 169 176 181 182 189 199 200 195 216 245 259 243 201 292 0 40 45 47 40 53 71
150 131 141 162 237 292 346 320 271 284 285 241 171 173 170 176 180 181 182 179 176 173 168 165 167 170 176 176 185 188 189 185 198 204 194 193 205 218 228 219 205 217 71 61 61 54 42 57 56
117 139 166 135 123 2 331 320 317 336 348 40 106 147 178 187 189 189 186 183 180 177 178 174 172 175 182 184 185 191 195 190 198 200 190 192 206 214 208 206 199 203 144 99 83 60 41 55 53
143 146 86 88 103 3 329 306 260 275 269 260 205 199 206 202 198 195 191 189 187 184 180 175 173 179 184 185 187 191 198 196 195 187 188 195 205 206 190 196 195 188 171 125 97 73 48 66 47
21 69 98 106 139 135 309 282 246 234 238 233 236 231 221 210 205 200 199 195 188 180 176 177 178 177 182 187 191 190 198 198 192 194 202 200 202 198 191 195 186 185 185 173 136 124 88 74 46
169 171 139 135 193 153 165 270 290 279 278 287 281 278 252 223 215 206 197 187 182 185 185 185 184 183 187 188 186 193 196 190 193 208 214 209 204 201 197 192 186 191 186 181 171 179 149 128 108